Showing default

IRIDIUM 162, 43482

Orbit data source: Space-Track

IRIDIUM 162, 43482 is a payload satellite owned by Iridium (US) in LEO that was launched on Tue, 22 May 2018 UTC via an FALCON 9 launch vehicle from the Air Force Western Test Range (AFWTR). Payload-class satellites include a variety of spacecraft equipped with specific instruments for various scientific and technological missions. These include communications satellites like Starlink; space stations such as the ISS; scientific satellites like the Hubble; Earth observation satellites from companies like Planet Labs, Umbra, and HawkEye 360; GPS; miniature CubeSats for education and research; and military/defense satellites.

Loading next visibility...
Identifier
43482, 2018-047G
Orbit
LEO
Country
Flag of USUS
Related business
Manufacturer
OATK SSG Gilbert
Mission
Operational Commercial Communications
Bus & Motor
ELITEBUS, Unknown motor
Mass
860 kg wet, 700 kg dry
Launch date (UTC)
2018-05-22 (7 years ago)
Launch vehicle
FALCON 9
Launch site
Air Force Western Test Range (AFWTR)
Object type
Payload
Rocket body
Debris
Shape & HBR
Trap Box + 2 Pan, 4.8 m
Radar Cross Section
10.154 m², Large (>1 m²)

Expand to show TLE details & history
Last TLE update: 10 hours ago

TLE from 10 hours ago
0 IRIDIUM 162
1 43482U 18047G   25315.18652897  .00000649  00000-0  18697-3 0  9996
2 43482  86.4531 179.4473 0002019  78.3241 281.8186 14.43284493393687
Epoch: 2025-11-11T04:28Z
TLE epoch observation values (Epoch: 2025-11-11T04:28:36.103Z)
Latitude
-0.00004°
Longitude
61.72017°
Altitude
750.437 km
Speed
7.479 km/s
True Right ascension
11h 57m 47s
True Declination
0° 00' 00"
Sunlit
Object was in daylight at epoch
Visualization orbit readout
Latitude
Unknown
Longitude
Unknown
Altitude
Unknown
Speed
Unknown
Apparent Right ascension
Unknown
Apparent Declination
Unknown
Sunlit
N/A
Visualization observer readout
Local Sidereal Time
10:28:11
Azimuth
Unknown
Elevation
Unknown
Doppler factor
Unknown
Orbital elements
Apogee altitude
746.056 km
Perigee altitude
743.18 km
Semi-major axis
7,122.755 km
Eccentricity
0.0002
Inclination
86.4531°
RAAN
179.4473°
Arg. of periapsis
78.3241°
True anomaly
281.79595°
Mean anomaly
281.8186°
Eccentric anomaly
281.80728°
Mean motion
3.61053 °/min
Orbital period
99.71 mins
BSTAR
0.00018697
Loading maneuver chart data...
Computing Atmospheric mass density...
Loading historical data...
Loading historical data...
Loading historical data...
Loading historical data...
Loading historical data...
Loading historical data...
Loading historical data...

Documentation

Showing up to 5 results
|